Weather History for KBRO - March, 2013

Change the Weather History Date:

Tuesday, March 26, 2013

  Actual Average Record
Temperature  
Mean Temperature 64 °F 71 °F  
Max Temperature 71 °F 81 °F 102 °F (1928)
Min Temperature 56 °F 62 °F 39 °F (1955)
Degree Days  
Heating Degree Days 1 1  
Month to date heating degree days 24 39  
Since 1 July heating degree days 317 542  
Cooling Degree Days 0 7  
Month to date cooling degree days 128 138  
Year to date cooling degree days 349 279  
Growing Degree Days 13 (Base 50)    
Moisture  
Dew Point 41 °F    
Average Humidity 47    
Maximum Humidity 57    
Minimum Humidity 36    
Precipitation  
Precipitation 0.00 in 0.05 in 0.50 in (1960)
Month to date precipitation 0.28 1.02  
Year to date precipitation 1.76 3.37  
Sea Level Pressure  
Sea Level Pressure 30.35 in    
Wind  
Wind Speed 11 mph (ENE)    
Max Wind Speed 20 mph    
Max Gust Speed 28 mph    
Visibility 10 miles    
Events      
T = Trace of Precipitation, MM = Missing Value Source: NWS Daily Summary

Daily Weather History Graph

Daily Weather History Graph

Search for Another Location

Airport or City:

Trip Planner

Search our weather history database for the weather conditions in past years. The results will help you decide how hot, cold, wet, or windy it might be!

Date:

Astronomy

Mar. 26, 2013 Rise Set
Actual Time 7:26 AM CDT 7:43 PM CDT
Civil Twilight 7:03 AM CDT 8:06 PM CDT
Nautical Twilight 6:37 AM CDT 8:33 PM CDT
Astronomical Twilight 6:09 AM CDT 9:01 PM CDT
Moon 7:20 PM CDT (3/26) 6:42 AM CDT (3/26)
Length of Visible Light 13h 03m
Length of Day
12h 16m
Waxing Gibbous, 99% of the Moon is Illuminated
Mar 26
Waxing Gibbous
Mar 27
Full
Apr 2
Last Quarter
Apr 10
New
Apr 18
First Quarter

Hourly Weather History & Observations

Time (CDT) Temp. Dew Point Humidity Pressure Visibility Wind Dir Wind Speed Gust Speed Precip Events Conditions
12:53 AM 57.0 °F 42.1 °F 57% 30.31 in 10.0 mi NE 5.8 mph - N/A   Clear
1:53 AM 57.9 °F 43.0 °F 58% 30.31 in 10.0 mi NE 8.1 mph - N/A   Overcast
2:53 AM 57.9 °F 43.0 °F 58% 30.30 in 10.0 mi NE 8.1 mph - N/A   Overcast
3:53 AM 59.0 °F 41.0 °F 51% 30.31 in 10.0 mi ENE 6.9 mph - N/A   Overcast
4:53 AM 60.1 °F 37.9 °F 44% 30.31 in 10.0 mi ENE 6.9 mph - N/A   Overcast
5:53 AM 60.1 °F 37.9 °F 44% 30.32 in 10.0 mi ENE 8.1 mph - N/A   Overcast
6:53 AM 60.1 °F 39.9 °F 47% 30.33 in 10.0 mi NE 11.5 mph - N/A   Overcast
7:53 AM 61.0 °F 41.0 °F 48% 30.35 in 10.0 mi NE 11.5 mph 19.6 mph N/A   Mostly Cloudy
8:53 AM 62.1 °F 39.9 °F 44% 30.38 in 10.0 mi NE 15.0 mph 23.0 mph N/A   Overcast
9:53 AM 64.0 °F 41.0 °F 43% 30.41 in 10.0 mi NE 15.0 mph 23.0 mph N/A   Overcast
10:53 AM 64.0 °F 43.0 °F 46% 30.42 in 10.0 mi ENE 16.1 mph 24.2 mph N/A   Overcast
11:53 AM 66.9 °F 44.1 °F 44% 30.43 in 10.0 mi East 15.0 mph 21.9 mph N/A   Overcast
12:53 PM 66.0 °F 42.1 °F 42% 30.42 in 10.0 mi ENE 12.7 mph 21.9 mph N/A   Overcast
1:53 PM 68.0 °F 42.1 °F 39% 30.39 in 10.0 mi East 13.8 mph 23.0 mph N/A   Mostly Cloudy
2:53 PM 68.0 °F 41.0 °F 37% 30.37 in 10.0 mi ENE 10.4 mph 18.4 mph N/A   Mostly Cloudy
3:53 PM 70.0 °F 41.0 °F 35% 30.35 in 10.0 mi NE 15.0 mph 20.7 mph N/A   Overcast
4:53 PM 68.0 °F 41.0 °F 37% 30.32 in 10.0 mi ENE 15.0 mph 23.0 mph N/A   Mostly Cloudy
5:53 PM 64.0 °F 41.0 °F 43% 30.32 in 10.0 mi East 13.8 mph - N/A   Overcast
6:53 PM 63.0 °F 41.0 °F 45% 30.34 in 10.0 mi ENE 8.1 mph - N/A   Overcast
7:53 PM 61.0 °F 42.1 °F 50% 30.34 in 10.0 mi East 10.4 mph - N/A   Overcast
8:53 PM 61.0 °F 42.1 °F 50% 30.35 in 10.0 mi ENE 8.1 mph - N/A   Overcast
9:53 PM 61.0 °F 42.1 °F 50% 30.35 in 10.0 mi ENE 9.2 mph - N/A   Overcast
10:53 PM 61.0 °F 43.0 °F 52% 30.35 in 10.0 mi East 9.2 mph - N/A   Overcast
11:53 PM 62.1 °F 43.0 °F 50% 30.35 in 10.0 mi East 9.2 mph - N/A   Overcast